sat.trackr.live / text

‹ back to catalog

STARLINK-37298

NORAD 68670 · 2026-077J

PAYLOAD ACTIVE UNKNOWN

§ Identity

Operator
Country
US
Launch date
2026-04-11
Launch site
AFWTR
Launch vehicle
Mass (kg)
RCS (m²)

Purposes: comms

External: N2YO · Heavens-Above · Gunter

§ Orbital elements

Epoch: 2026-09-19T09:48:59.298624Z

Period
93.91 min
Inclination
97.2879°
Eccentricity
0.0001153
Mean motion
15.33447645 rev/d
Perigee alt
464.7 km
Apogee alt
466.3 km
Semi-major
6,843.7 km
B*
3.3418e-4
RAAN
132.2859°
Arg perigee
119.7382°
Mean anomaly
240.3976°
Rev number
2,484

§ Raw data

STARLINK-372981 68670U 26077J   26262.40901966  .00010730  00000+0  33418-3 0  99942 68670  97.2879 132.2859 0001153 119.7382 240.3976 15.33447645 24843

JSON: /api/v1/satellites/68670 · /tle

For live sub-satellite position, see the globe view (requires WebGL).

§ Visibility from observer

Set your observer location to see the next 7 days of passes ≥ 10°. The values pass through the URL so the page stays shareable.

No JS? Fill the form by hand. The geolocation button needs JavaScript.